TimePDT,TemperatureF,Dew PointF,Humidity,Sea Level PressureIn,VisibilityMPH,Wind Direction,Wind SpeedMPH,Gust SpeedMPH,PrecipitationIn,Events,Conditions,WindDirDegrees,DateUTC
12:54 AM,59.0,55.9,90,29.99,10.0,NW,4.6,-,N/A,,Overcast,310,2013-07-03 07:54:00
1:02 AM,59.0,55.4,88,29.95,10.0,NW,3.5,-,N/A,,Overcast,320,2013-07-03 08:02:00
1:54 AM,57.9,55.9,93,29.97,8.0,Calm,Calm,-,N/A,,Overcast,0,2013-07-03 08:54:00
2:54 AM,57.9,55.9,93,29.95,9.0,Calm,Calm,-,N/A,,Overcast,0,2013-07-03 09:54:00
3:54 AM,57.9,55.9,93,29.94,8.0,Calm,Calm,-,N/A,,Overcast,0,2013-07-03 10:54:00
4:28 AM,57.2,55.4,94,29.91,1.5,West,3.5,-,N/A,,Overcast,260,2013-07-03 11:28:00
4:37 AM,57.2,55.4,94,29.91,0.8,West,3.5,-,N/A,,Overcast,270,2013-07-03 11:37:00
4:54 AM,57.0,55.9,96,29.94,0.5,West,3.5,-,N/A,Fog,Fog,260,2013-07-03 11:54:00
5:54 AM,57.0,55.9,96,29.96,1.2,Calm,Calm,-,N/A,,Overcast,0,2013-07-03 12:54:00
6:09 AM,57.2,55.4,94,29.91,1.5,Calm,Calm,-,N/A,,Overcast,0,2013-07-03 13:09:00
6:23 AM,55.4,55.4,100,29.91,0.2,NE,3.5,-,N/A,Fog,Fog,50,2013-07-03 13:23:00
6:30 AM,55.4,55.4,100,29.91,0.2,NE,3.5,-,N/A,Fog,Fog,40,2013-07-03 13:30:00
6:52 AM,55.4,55.4,100,29.91,1.2,ENE,4.6,-,N/A,,Overcast,70,2013-07-03 13:52:00
6:53 AM,55.9,55.0,97,29.95,1.8,ENE,3.5,-,N/A,,Overcast,70,2013-07-03 13:53:00
6:55 AM,55.4,55.4,100,29.91,4.0,East,4.6,-,N/A,,Overcast,80,2013-07-03 13:55:00
7:26 AM,57.2,55.4,94,29.90,10.0,East,6.9,-,N/A,,Scattered Clouds,90,2013-07-03 14:26:00
7:54 AM,60.1,55.0,83,29.94,10.0,Calm,Calm,-,N/A,,Clear,0,2013-07-03 14:54:00
8:54 AM,64.9,57.0,75,29.93,10.0,West,3.5,-,N/A,,Clear,280,2013-07-03 15:54:00
9:54 AM,66.9,57.0,70,29.92,10.0,North,3.5,-,N/A,,Clear,350,2013-07-03 16:54:00
10:54 AM,71.1,55.9,59,29.92,10.0,SW,10.4,-,N/A,,Clear,230,2013-07-03 17:54:00
11:54 AM,70.0,55.9,61,29.93,10.0,NNW,5.8,-,N/A,,Clear,330,2013-07-03 18:54:00
12:54 PM,71.1,55.9,59,29.92,10.0,WSW,8.1,-,N/A,,Clear,250,2013-07-03 19:54:00
1:54 PM,71.1,55.9,59,29.92,10.0,NNW,5.8,-,N/A,,Clear,340,2013-07-03 20:54:00
2:54 PM,70.0,57.0,63,29.89,10.0,NNW,4.6,-,N/A,,Clear,340,2013-07-03 21:54:00
3:54 PM,75.0,57.9,55,29.88,10.0,Calm,Calm,-,N/A,,Clear,0,2013-07-03 22:54:00
4:54 PM,75.0,57.0,53,29.86,10.0,NNW,6.9,-,N/A,,Clear,330,2013-07-03 23:54:00
5:54 PM,66.9,55.9,68,29.86,10.0,NNE,6.9,-,N/A,,Clear,30,2013-07-04 00:54:00
6:54 PM,64.9,55.9,73,29.87,10.0,NNE,6.9,-,N/A,,Partly Cloudy,20,2013-07-04 01:54:00
7:54 PM,59.0,55.9,90,29.88,7.0,North,6.9,-,N/A,,Mostly Cloudy,10,2013-07-04 02:54:00
8:09 PM,59.0,55.4,88,29.84,1.8,North,5.8,-,N/A,,Overcast,360,2013-07-04 03:09:00
8:31 PM,59.0,55.4,88,29.83,3.0,NNE,3.5,-,N/A,,Overcast,20,2013-07-04 03:31:00
8:42 PM,57.2,55.4,94,29.83,2.5,North,3.5,-,N/A,,Overcast,350,2013-07-04 03:42:00
8:54 PM,57.9,55.9,93,29.86,3.0,Calm,Calm,-,N/A,,Overcast,0,2013-07-04 03:54:00
9:54 PM,57.9,55.9,93,29.87,9.0,Calm,Calm,-,N/A,,Overcast,0,2013-07-04 04:54:00
10:54 PM,59.0,55.9,90,29.87,10.0,Calm,Calm,-,N/A,,Mostly Cloudy,0,2013-07-04 05:54:00
11:12 PM,59.0,55.4,88,29.83,10.0,Calm,Calm,-,N/A,,Partly Cloudy,0,2013-07-04 06:12:00
11:54 PM,60.1,55.0,83,29.85,10.0,East,3.5,-,N/A,,Clear,80,2013-07-04 06:54:00